World > North America > United States > Pennsylvania

Ellwood City, Pennsylvania Regional Weather

Lat: 40.86N, Lon: 80.28W
Wx Zone: PAZ013Web Search
Ellwood City Weather Warning NWS WEATHER ALERT FOR THE ELLWOOD CITY, PA AREA - HARD FROST ADVISORY Issued: 345 AM EDT Wed May 12 2021 Ellwood City Weather Warning  

Our weather pages are very print friendly and they make great conversation starters.

Feedback


°F Click to change Ellwood City hourly weather to Imperial units.Click to change Ellwood City hourly weather to Metric units. °C
Ellwood City Weather Map
UTC Time: 5/12/2021, 10:30
Your Time:

Ellwood City, PA Regional Weather

Expires:202105121100;;992893
ASUS41 KCTP 121010
RWRCTP

REGIONAL WEATHER ROUNDUP
NATIONAL WEATHER SERVICE STATE COLLEGE PA
600 AM EDT WED MAY 12 2021

Note: "fair" indicates few or no clouds below 12,000 feet with no 
significant weather and/or obstructions to visibility.

* = STATION THAT DOES NOT REPORT PRECIPITATION /E.G. RAIN...SNOW...ETC/
    THUNDER OR FOG.


PAZ002>004-007>009-013>016-020>023-029>032-121100-
WESTERN PENNSYLVANIA
  
CITY           SKY/WX    TMP DP  RH WIND       PRES   REMARKS
ERIE           PTCLDY    45  38  76 W7        30.30R                  
MEADVILLE      CLEAR     36  34  92 NW5       30.28R                  
FRANKLIN       MOCLDY    37  34  89 NW3       30.28R                  
NEW CASTLE     FAIR      37  34  89 CALM      30.31R                  
BEAVER COUNTY  CLEAR     37  34  89 W3        30.30R                  
BUTLER         CLEAR     34  32  92 CALM      30.30R                  
PITTSBURGH INT PTCLDY    36  31  82 W5        30.29R                  
PITTSBURGH     CLOUDY    39  33  79 N5        30.29R                  
INDIANA*       CLOUDY    36  32  87 CALM      30.31R                  
LATROBE        CLOUDY    36  30  80 CALM      30.30R                  
WASHINGTON CO* PTCLDY    31  29  92 SW3       30.33S                  
$$


SKY/WX - Weather  TMP - Temperature  DP - Dew Point  RH - Relative Humidity
WIND - Wind Direction/Speed PRES - Barometric Pressure VSB - Visibility
WCI - Wind Chill Index E13G22 Wind - East Wind 13 mph/Gusts of 22 mph